Theta_e
312 312 312 312 312 312 312 312 312 313 313 313 313 313 314 314 314 314 314 314 314 315 315 315 316 317 317 318 319 319 320 316 313 312 312 315 321 324 324 324 325 326 325 319 312 310 311 316 316 319 319 320 319 315 318 318 327 320 310 306 303 306 304 308 306 309 310 307 307 308 309 309 307 310 311 314 311 311 309 309 314 318 322 326 331 333 333 333
311 311 311 311 312 312 312 312 312 312 313 313 313 313 313 314 314 314 314 314 314 314 314 315 315 315 316 317 318 318 317 313 310 310 310 320 324 326 325 325 325 325 324 316 308 307 310 313 314 315 315 315 323 313 317 312 323 314 310 307 303 307 309 313 311 312 309 308 310 310 310 309 310 310 310 308 307 307 308 308 312 313 321 323 328 331 332 332
311 311 311 311 311 312 312 312 312 312 312 313 312 313 313 313 313 313 313 313 313 314 314 314 314 315 316 316 316 317 315 311 309 306 312 323 325 326 326 326 326 326 320 315 311 309 310 314 315 317 314 313 317 311 313 310 320 316 309 303 306 311 312 314 314 313 313 313 311 310 310 310 311 311 312 308 307 307 306 306 307 309 318 320 325 329 330 331
311 310 311 311 311 311 311 312 312 312 312 312 313 313 313 313 312 313 313 313 313 313 314 314 314 314 315 316 316 314 313 307 301 306 314 324 326 327 327 327 326 325 322 319 315 311 313 316 315 315 317 312 314 315 309 310 313 314 309 304 307 312 310 313 316 315 314 314 312 311 310 309 310 311 309 308 305 306 307 310 309 309 314 319 322 327 328 329
310 310 311 311 311 311 311 311 312 312 312 312 312 312 312 313 313 313 313 313 313 313 313 314 314 314 314 315 315 313 307 296 299 315 319 325 325 327 328 328 328 323 321 320 317 313 312 313 317 316 315 310 312 312 310 311 314 313 309 310 310 311 309 314 316 316 315 315 312 311 308 309 313 311 309 308 304 303 308 312 312 312 313 320 321 326 327 328
310 310 310 310 310 311 311 311 311 312 312 312 312 312 312 312 312 312 313 313 313 313 313 313 314 313 314 315 313 311 303 283 310 312 323 323 325 324 326 327 328 324 321 318 314 309 308 309 312 310 311 312 310 307 310 311 315 305 310 311 312 312 309 313 316 317 314 314 313 310 311 313 311 309 310 310 308 309 312 313 314 315 316 323 324 326 325 327
309 310 309 309 310 310 310 310 311 311 311 312 312 312 312 312 312 312 312 312 313 313 313 313 313 314 313 313 311 306 299 301 309 320 322 324 325 325 326 326 325 322 319 314 313 307 306 306 308 308 309 310 311 310 312 311 312 309 305 309 311 313 310 312 315 315 316 315 313 313 314 311 310 306 311 309 312 313 312 313 315 320 325 325 324 325 324 327
309 309 309 309 309 310 310 310 310 310 311 311 312 312 312 312 311 312 312 312 312 312 312 312 312 313 313 308 302 299 298 298 308 314 321 321 320 323 326 324 322 320 316 312 311 307 305 302 302 307 304 302 306 308 312 311 311 307 306 309 309 311 312 313 316 313 314 314 314 314 311 311 311 310 311 309 312 313 313 312 313 316 319 324 325 324 324 325
308 308 309 309 309 309 309 309 310 310 310 311 311 311 311 311 311 311 311 312 312 312 312 313 312 312 313 306 300 295 294 306 311 312 317 317 316 319 327 319 321 316 314 313 312 308 305 301 302 304 298 300 305 304 308 308 305 310 309 310 309 309 311 313 312 313 314 314 314 311 310 312 313 314 310 311 313 314 313 312 311 312 313 317 322 323 322 324
308 308 308 308 309 309 309 309 309 311 312 311 312 311 311 311 311 311 311 311 311 311 311 312 312 312 308 301 299 289 300 312 315 312 314 317 315 316 315 316 318 316 312 312 311 308 304 303 302 307 307 304 305 302 306 307 305 312 311 310 308 309 310 310 309 310 312 313 315 310 309 310 313 311 305 313 315 314 313 312 313 312 312 313 316 320 321 322
308 308 308 308 308 308 309 309 310 310 311 311 311 311 310 310 311 311 311 311 311 311 310 311 312 310 302 303 293 289 313 312 313 314 318 318 314 313 312 314 316 313 312 311 309 308 308 306 310 311 310 303 308 307 305 305 309 310 311 310 309 310 311 309 308 310 311 310 313 312 309 311 312 311 308 312 315 315 313 312 313 314 313 313 314 316 319 320
307 307 308 307 308 308 308 309 310 310 310 310 311 312 311 310 310 311 311 311 312 312 311 311 311 308 304 299 294 295 316 312 312 315 316 316 314 314 315 313 314 313 312 308 310 311 311 310 310 314 301 309 300 306 306 311 308 308 310 305 307 309 308 310 306 307 311 308 311 313 308 306 308 307 312 314 315 315 314 314 313 313 314 314 314 314 317 318
307 307 307 308 307 308 308 309 309 310 310 311 311 311 311 311 311 311 312 311 312 311 311 311 310 308 301 291 297 306 309 309 309 314 314 315 314 315 315 317 314 314 314 310 309 311 312 312 313 308 313 312 302 298 308 309 307 309 308 306 304 304 304 309 309 308 308 309 310 310 296 301 305 309 313 315 314 314 314 313 313 313 314 315 314 314 316 318
306 306 307 307 308 308 308 309 309 310 310 310 311 311 311 311 311 311 311 311 312 311 310 311 310 304 297 293 303 310 314 311 312 310 310 313 312 312 314 315 315 314 316 314 314 313 314 310 310 310 315 311 305 315 307 306 307 301 305 306 300 299 298 308 308 308 304 310 309 310 297 299 304 308 313 314 315 313 312 312 313 314 314 314 314 313 316 318
306 306 306 307 308 308 308 308 309 310 310 310 311 311 310 310 311 311 312 310 311 311 310 310 308 301 293 295 306 310 313 313 305 307 311 308 309 309 310 313 313 313 313 314 314 316 316 312 309 304 305 314 312 307 303 302 303 303 298 294 299 297 299 305 309 308 303 308 310 306 297 299 301 304 312 314 314 314 312 312 313 313 314 314 314 314 314 317
306 306 306 307 308 308 308 308 309 310 310 310 311 311 310 310 311 311 310 310 311 310 309 303 302 299 294 289 300 310 309 302 302 307 311 311 309 307 311 312 314 312 312 312 314 316 315 311 301 303 306 308 304 301 300 298 298 300 297 294 294 297 298 300 306 309 309 308 308 305 297 300 301 305 306 313 313 313 312 312 313 314 314 314 314 314 314 314
306 306 307 307 308 307 308 308 309 309 310 310 311 310 310 310 310 310 310 310 309 309 306 299 301 301 286 302 308 299 299 305 309 308 309 312 311 310 310 309 307 309 312 312 312 314 311 303 304 302 305 301 300 301 294 291 291 294 298 293 296 295 296 295 302 306 308 308 303 306 301 301 301 303 306 307 313 312 311 311 312 313 314 314 313 313 314 315
306 306 306 307 307 308 308 309 309 309 309 310 310 310 308 310 310 309 308 307 307 305 304 306 301 294 289 300 291 295 305 304 306 308 309 312 312 312 309 305 307 307 308 306 310 304 306 297 300 290 294 297 298 295 290 286 289 290 293 292 293 295 297 296 295 301 305 307 304 304 303 303 304 306 305 306 307 310 310 311 311 311 313 313 314 314 314 314
305 306 306 306 307 307 308 308 309 309 309 310 310 311 311 311 308 307 303 302 297 293 288 291 291 281 280 293 301 303 304 308 310 309 305 309 312 313 310 312 308 303 299 298 299 301 301 296 297 290 285 289 292 294 292 293 294 293 295 294 294 292 293 294 299 302 303 302 303 303 300 302 304 305 307 307 305 305 308 311 311 311 311 312 312 313 313 313
305 306 305 305 306 307 307 307 308 308 308 307 305 304 302 297 294 293 299 298 294 293 294 294 295 295 295 296 298 304 310 309 301 306 308 310 308 306 306 305 301 303 297 293 297 298 300 288 287 286 286 288 292 296 296 296 296 296 296 295 294 293 294 298 299 302 306 302 301 302 303 302 304 305 307 308 308 305 305 308 309 310 310 310 309 311 312 312
305 305 305 305 306 306 306 307 308 308 308 306 304 299 290 290 285 284 290 294 297 298 296 296 297 295 294 299 302 301 298 297 300 301 304 313 308 304 300 301 297 292 295 297 295 301 299 288 287 290 290 289 290 295 297 296 295 294 293 293 293 295 292 296 298 303 307 303 300 303 302 302 303 305 307 309 308 306 305 306 308 308 308 307 306 307 309 312
304 304 304 305 306 306 306 307 307 307 308 306 302 296 296 297 298 299 295 286 293 297 298 298 300 296 301 300 303 304 300 295 295 299 306 307 302 296 298 297 294 290 295 296 296 294 290 287 290 293 294 293 293 292 295 296 294 294 292 291 291 292 295 297 298 301 305 303 299 301 300 301 303 305 306 306 307 308 308 306 307 307 307 307 306 306 307 308
304 305 304 305 305 305 305 306 306 307 305 302 298 298 297 302 304 304 299 293 289 295 294 295 294 296 296 301 302 305 294 292 291 297 300 303 298 296 297 294 293 293 294 293 288 289 286 290 293 295 295 293 292 293 292 293 296 294 292 290 288 293 292 289 296 298 303 301 298 300 298 299 303 305 305 307 307 308 310 309 308 309 308 307 307 307 307 307
303 303 304 305 305 305 305 305 306 305 300 299 298 299 304 306 306 303 295 286 285 291 294 296 296 296 295 294 302 299 294 294 294 293 306 302 295 299 295 294 292 292 290 292 290 288 289 294 298 296 294 293 290 291 291 291 290 294 294 292 291 292 293 293 292 297 299 302 302 298 295 296 299 299 300 305 308 308 309 310 310 310 310 311 311 310 310 309
303 303 304 304 304 304 304 304 301 299 299 299 301 304 305 307 305 305 293 286 286 287 300 297 299 298 300 308 306 295 296 296 296 302 304 302 297 296 292 298 294 289 291 293 292 290 290 295 301 295 293 293 291 289 290 291 289 291 294 295 294 294 293 294 295 293 291 291 299 297 288 288 295 297 298 301 302 304 307 307 308 309 310 310 310 310 311 311
303 304 304 303 303 303 304 297 297 297 297 296 300 304 305 307 306 303 292 280 275 284 292 285 300 290 304 296 300 298 298 289 298 299 305 304 306 298 297 292 295 287 292 292 290 292 292 297 297 294 293 292 291 290 291 292 288 288 290 296 296 295 294 292 292 291 285 284 293 298 287 283 291 293 296 298 299 300 303 305 307 308 309 310 310 311 311 311
303 303 303 303 303 303 296 291 298 298 294 296 303 305 305 305 308 301 285 276 273 287 284 292 292 291 299 297 297 298 279 284 299 302 302 306 299 304 292 289 294 295 296 295 288 285 295 295 295 294 293 291 290 287 291 291 288 286 294 295 296 294 293 293 292 291 288 294 295 295 293 286 285 290 295 297 297 298 300 302 304 306 307 308 310 311 311 312
302 302 302 303 303 303 296 297 296 294 295 300 305 305 305 305 305 300 283 266 264 290 284 290 294 302 296 298 299 291 289 293 289 295 303 305 303 296 294 290 288 290 293 293 280 295 294 292 293 292 292 290 289 291 293 293 289 289 294 296 294 294 293 293 292 290 290 288 284 289 294 286 285 291 295 294 293 295 296 298 301 304 306 307 309 311 311 312
302 302 302 303 303 303 300 297 297 294 299 301 304 305 305 305 297 286 277 266 280 285 299 287 304 296 295 296 293 294 292 295 286 293 302 303 304 298 288 291 292 292 292 290 284 290 296 295 295 295 292 288 293 295 294 293 288 292 297 299 298 296 294 293 290 288 288 285 282 287 291 284 285 290 292 294 292 291 293 296 298 301 304 305 307 310 311 312
301 301 302 302 302 299 298 298 295 299 302 304 306 305 304 299 289 276 268 262 282 275 290 289 289 286 292 288 288 292 289 292 293 295 299 294 297 300 298 302 293 290 289 292 289 291 294 299 298 290 289 294 295 296 295 295 294 297 297 294 292 292 290 292 290 287 284 281 283 289 290 288 281 287 290 290 291 294 294 295 298 300 302 304 307 308 309 310
300 301 302 303 295 298 297 292 298 304 306 306 306 302 298 291 279 273 266 271 281 280 291 287 285 290 286 284 282 290 289 290 291 294 289 295 291 294 294 291 296 288 287 287 287 290 292 294 293 296 297 295 297 294 297 298 296 294 291 289 289 287 288 286 284 283 280 278 285 289 289 289 280 284 290 294 296 296 296 295 296 297 299 301 305 308 309 309
300 301 302 299 300 302 293 292 299 304 304 305 302 295 289 277 280 270 269 286 271 279 279 282 287 287 285 286 285 284 285 288 290 289 286 287 286 286 287 282 286 276 277 280 280 288 286 288 293 295 299 296 290 290 292 295 296 293 290 289 282 278 281 277 280 276 277 278 285 289 290 285 284 288 290 293 295 296 296 297 298 298 298 301 304 306 307 308
300 301 302 301 302 299 300 301 303 304 304 302 297 293 282 275 268 274 274 275 271 281 281 289 285 285 285 283 282 286 287 281 289 288 290 288 286 287 290 288 289 284 276 281 280 281 283 290 291 292 295 296 295 286 287 286 290 289 287 285 281 276 275 272 276 277 279 283 287 285 289 284 288 291 295 294 295 295 295 296 297 298 298 299 302 302 305 306
301 301 297 300 301 302 303 304 304 304 301 299 293 285 280 272 271 282 273 277 275 284 286 284 284 286 282 279 283 286 281 287 285 285 286 283 284 282 285 289 289 284 281 282 278 279 275 277 285 290 285 295 293 291 291 290 290 289 291 288 283 281 275 271 274 272 273 277 282 287 281 276 282 284 294 295 297 298 298 298 297 300 300 299 300 301 303 305
300 299 299 300 302 305 305 305 305 304 300 294 286 281 273 272 276 274 274 277 280 283 280 284 281 281 278 281 286 286 286 281 287 284 283 282 281 282 282 284 289 288 285 279 282 280 280 280 287 293 293 295 291 295 296 293 290 291 292 291 286 282 284 277 278 276 276 276 276 279 279 283 286 292 293 295 294 296 298 297 297 297 298 300 300 301 302 304
298 296 298 298 300 302 305 306 305 302 297 289 282 277 274 275 273 277 277 286 284 279 281 282 281 277 278 280 283 283 289 281 284 283 283 283 285 281 286 286 286 289 285 279 283 276 280 277 288 292 295 294 293 295 294 295 281 288 289 283 286 293 288 281 282 281 281 278 275 281 283 286 290 292 293 293 292 294 295 295 296 297 297 298 300 301 301 303
292 295 293 297 299 303 306 306 304 299 295 288 280 275 279 279 280 280 286 283 284 284 279 274 274 274 271 273 277 282 283 285 283 282 277 285 281 284 284 286 290 289 290 287 282 286 277 279 288 289 288 294 297 296 295 295 295 290 283 287 294 295 290 284 277 279 278 274 275 282 278 281 282 278 291 291 291 292 293 294 295 296 297 298 299 299 301 302
292 292 294 296 300 304 306 305 302 298 292 285 278 281 282 279 286 284 288 286 286 285 280 276 275 280 272 275 275 280 283 279 279 280 277 281 277 291 286 285 290 289 291 292 283 283 286 277 282 287 291 293 296 295 292 295 297 291 288 297 286 280 279 283 282 275 274 274 275 279 280 281 283 283 287 287 289 290 292 294 295 295 296 297 298 298 300 302
293 291 289 297 302 304 304 304 300 294 287 280 279 278 282 280 285 285 288 287 287 284 279 279 276 277 277 275 278 280 281 276 281 279 276 279 276 285 285 286 286 290 290 290 284 285 285 277 280 288 288 291 289 285 281 287 293 289 294 289 290 288 283 281 281 282 282 275 275 275 279 277 285 285 289 289 291 291 292 292 294 296 297 298 299 299 300 302
289 287 288 299 303 304 303 302 295 289 284 278 280 280 282 276 282 288 288 288 282 281 280 280 280 277 277 275 280 278 280 280 279 279 279 281 281 289 286 290 287 288 288 289 284 288 282 285 275 282 286 287 282 286 284 288 285 285 284 285 287 284 288 287 286 283 279 276 277 276 276 279 286 290 290 290 292 293 293 293 294 296 297 299 299 300 301 302
291 287 289 300 302 304 302 296 287 283 281 284 284 280 281 279 283 286 289 290 286 290 284 282 281 277 277 276 276 280 278 280 280 278 279 280 281 277 287 288 290 287 291 285 285 285 281 280 276 280 279 281 283 291 290 291 290 288 287 284 287 285 282 278 276 286 284 280 276 277 274 283 288 293 293 292 294 294 295 294 295 296 298 299 299 300 301 302
286 282 286 300 301 302 295 285 284 286 284 281 280 283 282 289 281 284 285 287 287 284 286 284 284 281 278 277 280 279 277 277 278 278 280 278 284 283 286 294 290 291 286 281 283 289 286 283 280 277 279 281 285 289 292 289 286 284 288 286 289 288 286 282 276 280 282 283 283 282 278 280 290 291 291 292 292 292 293 295 295 296 298 299 299 300 301 302
285 282 293 298 301 298 291 283 285 285 282 284 288 286 289 285 283 285 283 285 280 285 284 281 283 280 280 280 279 277 280 275 279 277 280 281 281 285 288 289 290 290 290 285 288 286 288 280 277 278 282 284 286 286 289 290 287 285 286 288 286 284 286 285 283 285 282 282 280 279 277 281 291 290 292 293 292 292 294 295 295 297 299 299 300 301 302 302
285 284 288 300 302 298 287 279 279 281 283 284 284 283 289 284 284 280 280 283 282 281 283 283 284 285 281 285 282 276 281 273 281 281 280 283 282 290 290 290 289 285 284 284 282 290 278 281 279 274 274 276 278 281 281 282 282 282 284 288 289 288 287 287 286 286 281 282 282 279 274 281 290 292 292 291 292 291 293 294 294 295 296 297 299 302 302 303
285 288 287 290 298 295 284 286 283 281 282 281 281 279 280 282 285 286 285 282 287 284 284 282 285 286 282 283 280 280 280 279 276 281 281 281 281 288 288 289 290 287 290 291 290 289 281 279 276 270 268 268 268 269 272 275 279 283 283 285 288 287 286 284 279 282 277 282 284 280 279 287 290 291 292 293 292 291 292 294 293 295 295 296 296 302 303 302
282 275 284 286 291 291 289 291 286 283 281 281 279 281 283 281 285 287 286 284 287 287 285 285 285 286 283 281 276 274 274 278 277 274 278 279 281 285 288 291 291 289 292 291 289 285 279 281 278 277 274 272 274 277 280 281 279 277 280 283 284 287 288 287 285 282 278 282 281 283 284 285 287 289 289 290 291 292 292 292 293 293 294 295 296 299 300 300
284 280 280 278 282 284 284 286 284 283 280 283 277 282 279 281 283 284 286 279 286 284 281 284 284 279 278 280 276 275 275 274 277 278 278 279 282 284 287 287 289 290 292 290 291 286 280 277 280 280 279 279 280 280 282 283 279 280 281 280 283 284 285 285 282 279 286 282 277 285 287 284 285 289 290 290 291 291 293 293 292 292 293 294 295 296 298 299
278 283 283 282 276 276 278 280 282 281 282 282 279 283 280 279 280 279 285 286 285 284 279 281 282 284 283 281 281 277 279 278 277 275 277 280 281 283 283 286 285 289 290 288 290 284 278 276 280 279 279 281 282 282 283 283 282 281 281 281 281 282 282 281 283 285 286 280 278 286 286 284 287 289 291 292 293 292 292 292 292 293 294 294 295 296 297 298
284 281 282 282 277 279 279 280 281 280 279 280 279 281 279 279 279 282 282 282 284 283 285 278 280 282 283 283 281 278 279 275 275 277 275 275 278 280 279 281 285 288 287 285 284 283 279 276 279 280 279 280 281 281 282 281 280 281 280 280 281 281 281 281 282 284 284 284 285 286 286 286 289 290 292 293 294 294 294 295 295 294 293 292 295 297 298 298
277 276 277 281 279 278 279 279 280 279 277 281 277 279 280 280 279 280 281 281 278 280 284 280 282 283 283 283 282 279 280 281 280 277 280 281 280 281 280 281 280 284 285 282 283 280 281 277 281 276 276 277 280 281 281 280 280 278 280 281 281 281 280 281 281 282 283 282 284 284 284 284 289 292 292 294 295 295 294 294 294 294 293 292 291 296 298 298
282 283 282 276 274 277 278 280 279 278 276 277 276 278 280 281 277 278 278 282 280 279 282 280 282 281 283 283 282 281 284 283 283 283 284 283 278 283 280 281 284 279 282 281 281 280 281 278 278 276 274 274 277 278 279 280 280 279 279 279 280 279 277 279 278 281 281 280 283 283 282 283 289 292 293 293 293 292 292 293 294 295 294 293 293 294 296 297
285 287 285 281 274 279 275 278 278 277 274 278 279 277 276 277 277 278 274 281 283 284 282 280 280 279 279 280 280 282 285 286 285 286 287 287 287 286 286 285 285 282 281 281 283 280 280 277 275 275 273 273 277 278 277 277 276 274 276 279 281 281 282 282 283 283 283 283 280 279 281 288 290 292 290 292 292 292 293 294 294 295 295 295 295 295 296 297
Wind_Speed
18 18 18 18 18 18 18 18 18 18 18 18 19 19 19 20 20 21 20 20 19 19 19 18 18 18 18 18 18 17 17 12 14 13 14 13 13 13 17 18 20 17 11 9 11 9 9 9 10 9 8 6 5 7 5 9 3 3 5 6 9 7 10 6 8 5 4 3 4 6 7 6 6 4 2 1 2 2 5 3 4 6 9 10 9 11 11 11
18 18 18 19 19 19 19 19 19 19 18 19 19 19 19 20 20 21 21 20 19 19 19 18 18 18 18 18 18 17 14 12 17 18 21 12 15 17 18 19 20 19 12 9 10 9 9 9 9 9 8 8 4 7 8 4 7 6 1 5 10 8 7 7 7 10 6 4 9 7 4 5 8 9 3 4 4 4 4 3 6 6 9 8 9 12 11 12
19 19 19 19 19 19 19 19 19 19 20 19 20 19 20 20 20 21 21 20 20 19 19 19 18 18 17 17 17 17 12 14 16 19 17 16 22 23 21 21 21 19 11 11 10 10 10 9 7 8 7 8 8 8 10 8 9 9 7 10 10 7 9 12 13 9 6 7 8 8 4 4 6 7 5 4 8 6 7 6 6 7 10 10 10 11 12 11
20 20 20 19 20 20 20 20 20 20 20 20 20 20 20 20 20 20 21 21 20 19 19 19 19 17 17 17 16 11 10 12 15 15 10 11 20 23 26 25 22 18 11 12 12 12 10 8 10 8 7 11 7 11 11 8 8 7 10 12 9 9 11 11 12 12 8 7 3 9 4 3 5 3 5 4 5 9 7 7 9 9 12 13 12 12 11 11
20 20 20 20 20 20 21 20 20 21 21 21 21 21 21 21 20 20 20 20 20 20 19 18 18 17 16 15 16 8 9 9 3 5 8 10 13 10 23 23 21 12 10 10 10 11 10 8 6 7 7 7 9 9 12 11 9 4 12 11 12 11 12 10 12 11 6 8 4 1 9 5 3 3 5 6 6 4 8 8 8 10 12 16 14 12 10 12
20 20 20 19 19 19 20 20 20 20 20 20 21 21 22 21 21 21 20 20 20 19 19 18 17 17 15 14 9 7 3 11 3 5 8 11 8 7 7 9 16 13 10 12 11 10 11 8 8 7 5 8 11 13 9 12 11 11 10 12 14 14 13 10 8 5 9 10 11 6 4 3 6 3 4 5 7 2 7 2 7 4 7 17 14 13 11 11
20 20 20 19 19 19 19 19 20 20 21 21 21 21 21 21 21 22 21 20 20 19 19 18 16 16 15 13 8 8 11 12 10 2 11 9 11 6 8 6 1 6 12 13 12 11 11 10 10 9 7 7 10 11 11 12 14 12 10 9 13 15 17 14 10 4 6 10 14 5 2 5 6 6 5 6 6 5 4 7 7 10 14 12 13 11 13 13
21 20 20 19 19 19 19 19 20 21 21 22 22 22 22 21 21 21 22 21 20 19 18 18 16 15 13 8 8 9 12 16 19 16 11 8 11 5 2 6 7 8 12 16 13 13 8 11 12 8 9 9 6 12 10 13 14 14 13 10 10 11 12 12 5 5 6 7 9 6 7 6 5 5 4 8 7 4 7 7 7 5 8 10 11 10 10 10
20 20 20 19 19 19 19 20 21 21 22 23 24 24 23 22 21 20 21 21 20 18 17 15 15 13 12 6 9 10 16 13 11 13 8 8 5 4 1 1 7 11 12 13 13 11 8 8 10 9 7 12 9 13 12 11 13 14 13 10 10 10 10 12 11 15 11 6 3 6 7 7 5 3 7 5 7 5 8 6 7 6 4 6 10 9 9 9
19 20 20 20 20 19 20 21 21 21 21 21 22 24 24 22 20 19 18 20 21 18 17 15 14 12 8 8 7 15 9 10 6 13 13 6 4 5 5 3 9 10 9 10 9 10 11 5 9 6 8 10 9 13 8 15 9 8 13 13 13 13 12 8 13 14 11 8 4 10 7 8 6 3 5 7 2 4 6 8 7 8 6 5 5 8 8 9
19 20 20 20 21 20 20 21 21 21 22 22 22 22 23 23 20 17 15 16 18 18 16 15 12 9 9 8 10 16 2 5 4 5 7 11 9 5 6 4 4 7 9 7 9 9 9 10 3 3 4 6 3 7 11 8 10 11 11 13 15 11 11 12 11 10 5 6 11 10 10 8 9 7 8 3 6 5 6 8 8 7 6 6 6 7 6 7
19 19 20 21 21 21 21 21 21 22 22 23 21 20 22 22 19 16 15 13 14 12 14 14 12 5 7 10 12 14 0 1 6 3 5 6 5 6 5 8 6 5 6 6 6 6 6 5 6 3 4 6 9 6 9 11 12 9 13 13 11 12 13 15 16 10 8 7 5 8 10 13 10 12 7 9 4 10 11 8 8 7 6 6 7 6 6 7
19 19 20 21 22 22 22 22 22 23 23 23 21 19 21 20 18 17 15 14 11 11 10 8 6 3 7 12 14 15 9 12 12 3 7 5 4 5 4 3 8 7 5 6 4 5 6 6 3 7 7 6 3 6 4 8 8 7 10 9 8 10 14 17 13 13 11 8 6 6 10 12 12 10 9 9 10 7 8 12 8 7 8 6 6 7 6 6
19 19 19 20 21 22 22 23 23 23 24 23 22 20 20 19 18 17 15 14 13 13 10 7 2 2 5 9 6 4 4 6 7 10 10 10 7 5 5 5 4 7 6 4 5 4 3 4 5 6 8 7 4 9 7 4 4 10 6 6 8 8 14 12 11 12 15 8 11 8 13 9 9 12 12 9 9 11 10 6 7 8 7 6 6 6 8 8
19 19 19 19 19 20 22 23 24 25 25 24 21 20 18 17 17 17 15 12 12 12 10 4 3 2 5 9 8 11 17 11 10 11 8 11 10 6 6 5 6 6 8 6 3 2 1 4 3 6 6 3 7 7 3 4 4 6 8 11 8 12 11 9 13 14 16 8 12 10 13 12 7 7 15 13 11 12 13 9 7 6 6 7 7 7 6 9
19 19 21 21 20 21 21 22 24 26 26 24 21 18 16 16 15 14 12 10 10 8 4 4 3 4 5 12 2 7 3 10 15 16 9 10 10 10 4 2 4 7 8 7 5 2 1 2 6 3 6 5 7 5 3 3 6 6 10 8 13 11 10 5 13 12 17 9 13 18 10 3 9 10 6 14 15 16 16 15 12 11 10 9 7 7 6 6
19 20 20 21 21 21 22 23 24 26 26 23 19 15 14 14 12 11 9 8 4 3 3 3 1 5 4 1 4 6 6 7 9 6 10 10 10 9 6 4 5 6 6 7 6 2 3 3 2 4 4 6 6 7 6 8 8 9 8 11 8 14 10 12 7 12 13 17 12 16 15 8 3 6 15 9 14 18 15 15 14 12 9 9 6 6 7 8
19 20 20 21 21 22 23 23 24 25 25 24 19 14 12 13 11 8 6 2 1 2 5 1 2 4 9 9 10 8 3 5 8 7 8 8 9 8 7 7 5 8 6 9 8 8 5 4 4 6 5 8 8 10 11 14 14 12 11 10 11 10 13 12 12 9 13 18 18 13 16 14 11 11 6 11 11 12 15 13 12 13 12 11 9 8 8 7
20 20 21 21 21 23 23 24 24 25 25 26 20 16 16 15 7 4 4 0 1 2 2 5 5 7 3 3 7 3 3 7 7 5 7 8 6 4 5 4 2 3 6 7 5 10 6 2 5 6 11 11 13 14 15 13 14 12 12 12 11 11 11 13 9 7 15 14 17 17 13 13 13 12 13 6 4 9 8 10 12 12 12 10 9 8 8 7
20 20 21 22 22 23 24 25 25 26 27 17 11 9 5 3 2 1 2 2 6 8 10 5 10 9 11 6 3 4 4 5 5 4 6 4 7 9 6 5 3 4 7 7 8 11 7 8 10 11 11 16 18 18 17 14 9 11 13 12 13 11 11 8 8 5 8 8 13 15 15 13 14 14 13 12 9 8 9 10 9 10 9 9 8 9 9 8
21 21 21 22 22 23 25 26 26 27 27 12 10 8 6 8 6 5 7 9 13 13 12 13 9 11 10 4 4 1 3 3 2 6 7 6 4 8 8 7 7 9 8 11 8 7 10 9 11 12 15 14 16 14 14 13 14 14 10 9 10 12 11 9 8 7 8 9 8 13 13 16 14 13 13 14 13 14 9 8 10 10 9 8 8 9 9 9
21 20 21 23 24 24 25 26 28 28 24 7 6 6 7 3 3 3 2 7 7 10 13 15 11 12 8 10 8 4 5 2 4 9 4 5 2 10 8 10 11 10 7 8 10 8 11 13 13 15 14 12 12 15 16 15 16 16 10 7 10 10 6 7 10 7 7 10 7 7 14 13 13 13 13 12 15 14 12 10 10 11 11 11 10 8 8 6
22 23 23 23 24 25 25 28 27 29 8 6 7 9 6 4 2 5 5 7 14 10 12 12 13 14 12 9 6 5 7 6 4 4 3 5 2 12 6 10 11 9 8 10 9 6 11 12 15 14 12 13 13 14 17 15 14 10 10 10 10 5 8 7 8 7 5 7 4 7 10 8 10 13 14 13 12 12 13 13 12 11 13 12 11 7 8 8
22 22 23 23 24 24 26 27 29 13 5 10 9 6 3 3 1 1 4 5 8 8 9 10 10 9 10 8 4 9 9 6 5 6 5 7 5 1 7 10 11 9 11 12 12 8 7 5 13 11 13 14 15 13 12 13 13 12 11 10 8 7 6 4 2 7 4 8 4 0 4 7 7 9 9 12 14 11 12 15 15 12 9 10 10 9 9 10
21 22 22 23 23 27 25 28 9 7 10 10 4 6 5 3 2 0 4 4 5 6 3 7 7 5 5 3 3 7 6 7 10 1 6 8 5 3 5 4 7 12 11 11 13 11 12 14 3 11 13 15 13 12 13 10 12 11 13 12 8 6 7 6 6 3 5 8 8 8 5 12 7 11 13 7 6 15 14 14 14 14 13 9 9 13 11 9
22 22 22 24 25 26 26 11 4 11 13 6 5 5 4 2 3 3 4 2 7 1 4 1 2 4 6 5 4 3 3 9 6 8 8 8 6 5 2 6 4 8 12 12 10 5 8 9 10 10 14 13 12 11 12 12 10 10 11 13 13 11 7 8 6 5 6 8 3 7 10 9 6 11 11 9 10 12 9 15 16 14 13 13 11 8 9 10
23 23 23 24 25 25 12 5 9 12 9 3 6 6 4 2 1 6 2 2 5 2 2 4 5 2 3 6 3 2 4 4 5 7 7 8 6 3 3 3 2 3 3 1 1 7 3 8 9 12 13 10 12 13 11 12 10 11 4 9 13 14 13 9 7 8 5 1 4 4 8 12 10 6 9 16 17 19 19 15 14 14 13 12 11 9 6 7
24 24 24 25 24 20 10 11 10 9 8 8 6 5 5 3 3 3 1 3 2 5 2 3 4 1 3 3 0 8 1 4 1 1 5 6 11 2 4 8 5 5 4 2 14 4 11 9 12 12 14 8 11 10 9 13 11 6 6 5 6 13 14 11 7 5 4 2 6 7 3 5 10 7 8 8 16 19 19 19 18 16 16 15 14 13 12 12
23 25 25 25 26 25 13 7 8 11 7 7 4 4 2 3 3 1 1 3 1 1 1 2 1 4 1 4 3 8 12 4 8 3 2 6 5 6 5 10 7 7 5 6 9 7 1 5 8 13 11 10 9 11 9 10 12 8 1 4 3 3 7 9 6 5 5 5 11 8 7 8 12 7 8 10 13 12 14 18 17 16 15 15 15 14 14 13
25 25 26 27 21 9 6 7 8 9 9 3 2 2 4 4 2 1 0 4 2 1 2 2 3 7 2 1 3 7 10 6 3 3 1 3 4 3 2 1 4 4 5 3 6 9 10 2 5 1 6 4 5 11 9 11 10 2 4 3 3 1 2 2 1 2 3 13 12 9 9 9 13 10 12 11 11 12 10 7 10 14 15 15 15 16 14 13
27 26 26 25 12 7 7 7 2 6 5 1 0 2 3 1 1 2 1 2 2 2 2 2 2 3 4 4 4 3 6 6 5 5 2 2 2 5 2 2 2 2 1 5 7 9 8 6 2 2 6 1 3 3 8 8 7 6 2 6 4 3 3 3 2 1 8 12 12 14 12 13 16 12 10 11 7 12 14 16 15 12 12 14 13 14 15 15
28 29 28 18 9 5 5 7 7 6 4 3 2 1 1 1 2 2 2 2 2 1 3 4 3 2 5 10 6 5 3 5 5 5 4 4 3 4 6 6 5 2 5 5 8 4 10 10 4 7 4 8 2 3 7 7 5 8 7 6 11 5 3 7 3 7 8 7 6 11 13 12 21 17 2 6 9 9 8 9 12 14 13 11 11 13 13 13
29 28 29 13 6 4 5 5 5 4 3 2 2 1 1 2 4 1 3 2 2 1 2 4 4 4 2 2 1 5 3 4 4 5 2 3 5 6 7 7 3 5 4 3 10 6 5 6 10 10 4 5 5 3 3 5 5 9 12 10 10 10 10 10 9 5 6 9 8 4 9 14 11 15 15 14 8 5 4 3 5 12 12 11 10 9 10 10
29 26 12 6 5 5 5 5 3 2 2 1 1 1 1 3 2 3 2 1 5 2 6 3 6 4 2 2 2 3 1 3 0 4 4 1 4 5 5 7 8 4 2 4 2 1 6 8 8 8 6 9 11 11 9 4 7 13 8 12 11 10 7 11 9 13 14 10 7 11 5 4 9 7 9 19 19 17 15 11 4 1 3 4 7 7 7 7
27 17 8 7 3 0 3 3 2 2 2 1 1 2 2 3 3 4 3 3 2 3 4 1 5 4 4 2 2 2 0 2 2 2 3 4 3 3 3 5 10 7 3 6 4 3 5 8 3 17 9 14 13 13 13 6 7 6 7 5 9 13 4 12 5 6 7 7 5 5 7 1 13 2 3 3 7 15 20 19 8 5 4 2 5 7 7 7
15 7 9 4 4 4 1 0 1 3 3 2 2 3 5 1 2 2 1 2 3 4 9 9 7 2 2 3 1 4 3 2 2 1 2 3 4 3 5 4 5 12 7 8 1 4 4 9 1 3 9 10 12 12 11 11 7 3 2 10 8 4 12 6 7 4 1 6 10 4 5 12 11 15 13 8 4 7 12 13 13 11 8 5 6 7 7 7
8 9 5 5 5 3 1 1 1 3 1 2 2 3 2 3 1 1 5 9 9 8 4 6 3 4 3 3 4 2 1 2 2 2 2 2 2 6 4 7 7 6 13 7 7 4 3 6 3 1 8 8 11 13 15 18 9 2 8 9 7 5 5 4 8 5 9 9 6 10 15 11 11 11 10 18 16 10 6 5 9 10 9 9 7 7 7 7
9 7 9 5 4 4 0 2 3 2 1 1 4 7 2 2 2 4 4 7 6 4 4 2 2 2 2 4 3 6 2 1 2 3 3 0 3 3 3 3 5 9 7 9 7 2 5 11 14 7 5 5 5 5 10 13 16 14 8 3 10 8 11 3 2 11 8 11 7 11 10 14 12 12 1 11 19 18 20 13 6 8 11 12 10 8 7 8
7 6 3 3 4 3 1 1 1 3 1 2 2 5 1 1 2 3 5 5 4 6 3 1 2 1 4 3 5 5 5 3 3 1 3 0 1 2 3 2 5 11 6 3 6 6 1 5 7 4 7 2 3 2 7 8 5 5 2 3 3 2 6 9 9 3 6 11 7 12 11 15 8 7 8 7 10 15 17 16 17 15 14 14 12 10 9 10
7 4 2 2 3 2 3 2 2 1 1 3 2 3 2 2 3 3 4 5 2 3 2 5 1 3 3 2 4 4 3 4 3 2 0 1 5 6 8 3 3 3 1 4 3 5 6 4 11 1 1 1 4 5 7 8 10 8 1 3 3 3 1 3 4 10 7 5 10 8 13 8 10 7 10 10 14 10 10 14 13 12 11 13 14 13 12 13
4 1 1 2 3 1 3 3 1 3 3 3 3 4 3 3 1 3 6 5 4 4 6 5 6 3 2 4 4 1 1 1 2 1 2 2 2 3 2 4 3 3 1 0 2 1 4 4 10 8 4 5 4 3 8 10 9 10 11 10 12 11 9 8 7 0 7 7 8 6 14 6 3 5 11 14 13 10 10 9 12 13 13 14 13 13 14 14
4 2 3 4 4 0 2 1 2 1 2 4 3 2 2 2 2 4 3 2 2 3 2 2 5 6 4 3 4 4 2 3 3 2 2 4 5 6 3 5 3 2 4 4 6 2 3 3 5 10 7 9 9 8 3 2 1 3 3 7 9 9 7 9 11 7 3 9 4 11 8 9 3 3 3 4 2 4 8 11 9 10 13 11 9 11 11 10
3 4 8 6 1 1 3 3 4 3 3 2 2 1 2 3 3 2 4 2 2 2 2 2 4 3 4 2 2 1 1 3 3 3 3 3 5 8 8 11 9 3 1 3 3 1 6 1 4 8 7 9 8 1 5 3 1 4 3 3 5 8 12 13 10 7 9 6 11 9 14 7 5 2 2 2 2 2 4 1 8 7 8 9 11 11 9 7
5 5 4 2 0 3 2 2 3 2 3 2 2 3 4 2 2 4 1 2 2 2 4 4 4 3 4 3 4 3 2 2 5 8 6 5 4 5 5 4 4 1 3 2 3 3 3 1 3 7 6 4 4 4 2 2 1 3 5 6 8 8 11 10 8 5 9 9 7 7 15 7 6 4 3 2 3 4 3 5 3 4 6 7 9 9 8 8
6 4 3 2 4 1 1 2 4 5 6 8 7 8 4 3 3 6 6 4 3 4 2 5 5 3 3 2 3 2 3 5 4 4 9 9 9 5 9 6 5 4 6 8 5 2 1 5 1 2 6 7 5 3 3 3 5 7 5 11 10 11 13 9 10 8 11 5 12 10 7 5 5 4 12 10 5 2 2 2 2 1 2 4 5 8 10 9
3 2 1 2 1 2 3 2 2 3 5 5 6 4 3 4 4 5 5 6 6 7 6 7 6 7 7 5 3 4 6 5 5 3 2 4 3 1 3 3 5 3 4 1 4 3 2 1 3 5 6 10 11 12 16 13 7 6 10 8 12 14 15 15 11 12 15 9 13 12 11 9 9 11 7 5 5 9 7 3 4 2 2 1 2 5 6 7
2 2 3 3 5 2 3 2 5 4 3 7 5 3 6 8 6 6 4 1 2 1 2 3 3 2 2 3 4 4 4 5 7 9 10 11 9 8 8 10 10 10 9 3 7 3 1 4 8 10 12 14 13 13 13 11 13 14 13 12 10 9 11 15 14 16 6 8 19 8 12 13 16 14 12 6 6 6 8 7 5 5 5 6 5 4 6 5
2 1 3 1 1 2 5 1 7 6 7 6 4 3 7 8 7 6 2 6 5 1 1 1 2 6 7 7 8 6 1 3 3 6 5 6 8 6 8 6 8 9 9 3 7 4 3 7 9 5 13 13 12 12 11 10 9 11 15 15 13 13 11 11 15 16 13 13 14 9 10 10 11 11 10 11 10 11 6 4 4 4 5 7 8 8 7 7
2 2 0 2 2 2 2 7 10 6 7 6 4 5 7 6 8 5 3 4 1 2 4 6 5 7 9 8 4 5 4 6 5 4 3 3 4 7 6 6 7 10 7 4 3 3 2 6 11 8 13 12 12 13 12 13 11 13 14 15 14 12 13 14 13 14 15 18 15 17 18 21 13 12 15 16 14 13 14 11 8 8 7 6 9 9 9 9
2 2 1 3 2 5 6 5 6 6 5 6 4 3 6 8 7 8 8 4 6 6 3 7 9 11 11 11 7 6 7 9 11 12 5 9 10 4 7 7 8 3 2 4 2 1 4 6 7 2 4 10 11 11 12 13 14 15 15 15 14 12 13 12 11 14 12 13 13 17 23 22 13 16 19 18 17 17 18 20 18 12 8 6 5 8 10 10
1 1 0 2 5 3 3 3 3 4 5 3 5 4 5 7 8 11 10 6 9 8 5 9 12 13 9 9 10 11 10 9 10 13 12 9 11 6 5 1 1 3 2 2 2 2 6 6 1 1 6 11 10 10 12 11 12 13 14 13 12 12 11 9 11 8 11 12 13 14 15 14 12 14 16 18 17 19 21 21 18 13 7 6 6 5 9 9
3 0 3 1 3 4 3 4 5 3 3 1 4 6 3 7 9 8 8 6 6 4 7 11 11 10 12 12 13 12 11 11 12 12 10 10 11 13 10 10 9 10 6 5 3 3 3 2 2 3 7 10 13 9 10 9 7 10 11 12 15 15 14 13 12 11 13 11 14 14 14 10 15 14 14 17 18 19 18 17 15 15 13 9 8 8 9 11
Wind_Direction
334 333 333 332 331 329 327 325 323 321 321 320 319 318 317 316 313 310 307 304 302 302 301 299 302 302 302 304 305 304 317 304 301 288 265 246 241 249 243 258 271 267 275 297 299 289 282 268 251 236 240 223 204 226 207 227 93 318 231 232 241 235 231 234 251 219 235 197 151 175 173 166 158 164 130 199 128 287 128 174 117 79 74 111 118 121 125 130
334 333 332 331 330 329 326 324 323 322 320 318 317 316 316 315 314 310 308 303 301 299 299 298 296 298 300 302 303 306 313 307 289 284 265 272 252 236 243 253 251 259 273 278 272 268 265 264 251 228 227 223 177 226 164 213 144 186 213 258 238 225 244 256 246 246 227 186 164 156 197 213 165 165 155 166 193 198 144 196 146 132 109 111 124 125 132 143
336 333 333 331 329 328 326 324 323 322 320 318 317 316 313 313 312 311 306 303 298 298 297 297 295 296 298 300 301 305 314 301 297 271 277 253 238 237 240 243 242 246 238 251 262 262 255 268 287 305 227 232 204 221 190 208 162 189 188 230 244 248 258 248 254 261 261 255 157 150 150 236 139 158 137 197 177 189 202 179 178 173 146 145 141 144 146 155
338 336 333 331 330 328 327 325 324 321 321 320 317 316 314 311 311 310 307 303 299 295 295 295 295 294 296 297 301 307 304 305 282 270 276 294 240 219 228 230 231 232 228 241 255 270 280 274 278 258 267 222 217 215 211 200 197 169 204 216 229 235 253 257 263 261 283 268 237 146 111 215 138 165 156 179 213 188 201 200 178 192 163 156 157 153 155 160
342 338 337 334 332 331 328 325 326 323 322 320 319 315 314 311 309 307 306 302 299 295 293 292 292 292 293 296 301 309 303 298 276 74 5 343 4 263 226 226 231 222 219 239 253 255 263 274 260 264 248 223 218 220 222 211 207 216 213 215 227 245 257 259 261 258 287 292 289 189 141 211 141 154 181 189 211 202 194 199 184 183 167 154 158 157 160 163
343 340 337 335 334 332 330 328 326 326 323 321 319 317 314 312 309 307 304 303 297 293 290 290 291 290 289 294 294 290 237 234 78 47 337 343 333 321 328 253 230 221 215 233 238 241 236 238 241 234 227 228 209 218 209 221 187 231 220 215 221 234 253 269 286 341 347 325 295 252 164 203 159 188 196 217 215 114 43 349 167 142 140 151 150 150 163 165
343 340 338 337 334 334 331 330 327 325 323 319 317 316 314 312 310 308 304 300 298 292 288 286 288 290 291 295 286 266 242 260 293 212 11 343 306 306 258 242 206 222 216 225 228 227 217 221 219 224 227 228 233 225 223 211 215 224 228 222 222 221 231 237 257 146 251 273 270 252 281 207 164 210 174 219 232 101 87 70 60 96 112 131 144 160 169 170
344 343 340 338 336 332 331 330 328 325 322 320 316 314 312 309 309 310 306 300 296 292 289 288 285 288 290 287 275 254 240 244 254 280 282 336 333 333 247 214 195 187 211 218 216 225 214 215 212 211 237 220 204 228 216 235 221 226 229 222 238 231 230 242 233 229 209 246 299 309 279 245 223 198 174 208 217 175 115 101 90 83 120 140 147 165 171 174
345 343 340 337 336 333 329 328 327 325 324 322 320 315 312 308 308 309 308 302 294 291 286 283 284 289 306 275 252 260 247 247 250 272 272 284 346 344 359 205 181 188 194 213 228 231 227 215 225 213 220 226 239 235 220 220 227 224 233 227 236 244 229 232 229 227 187 209 253 274 262 285 272 237 259 230 200 200 130 127 132 126 138 156 157 170 173 178
345 343 340 338 335 333 331 329 327 327 322 321 318 315 313 309 307 308 309 302 296 292 288 281 283 282 274 256 255 254 269 265 269 245 239 242 253 314 262 264 191 193 208 210 223 232 230 227 220 228 271 283 253 238 236 223 235 198 229 238 232 233 253 234 231 235 230 181 179 258 249 245 259 241 236 238 244 197 147 150 154 153 167 183 168 168 178 176
342 342 340 339 335 333 333 330 329 326 321 317 316 314 310 304 303 302 303 303 300 295 291 287 295 291 264 245 245 252 52 312 264 358 283 218 234 262 316 306 211 224 213 213 229 228 247 263 275 313 274 241 293 267 247 242 235 235 226 235 243 237 240 260 249 242 253 215 185 215 245 242 239 228 231 226 212 248 225 170 169 170 181 183 186 178 176 179
339 339 339 339 337 334 332 331 329 327 321 318 315 312 310 305 301 296 293 287 287 291 298 292 293 307 290 265 243 238 342 278 296 173 198 304 243 252 245 276 278 262 252 240 222 249 255 271 293 295 242 137 242 300 262 261 260 232 223 234 235 239 242 239 248 229 208 243 185 205 245 239 222 228 214 232 239 203 228 230 185 185 186 193 186 182 175 182
339 339 341 341 338 336 333 331 330 328 322 319 315 311 308 305 302 296 290 285 276 271 270 280 294 254 278 263 245 250 264 286 290 355 305 176 243 272 291 256 262 267 271 265 246 219 251 271 307 293 268 295 232 209 318 318 255 242 228 228 242 235 242 234 235 242 212 210 219 156 243 231 222 220 223 208 227 259 228 220 208 195 191 197 195 178 178 180
340 339 340 341 337 335 332 330 329 328 324 320 316 312 309 305 300 295 289 280 279 277 272 265 251 269 250 257 272 338 263 243 292 270 232 273 262 235 256 265 263 263 266 262 288 347 297 239 265 286 295 248 233 0 287 269 213 227 210 224 229 225 236 218 225 224 235 173 208 188 242 239 222 204 212 220 198 225 247 236 218 205 193 193 200 189 177 184
339 340 339 340 338 332 329 331 330 331 326 323 318 312 311 305 298 294 291 286 278 283 286 285 224 258 253 264 259 248 248 259 267 262 258 226 241 244 230 237 261 246 249 248 246 237 347 314 239 250 260 220 268 298 296 256 215 216 197 217 221 228 234 218 209 216 225 187 198 207 244 237 230 214 196 208 195 213 233 233 220 227 211 201 195 201 188 180
339 340 341 340 339 335 331 331 334 334 333 326 319 312 306 300 295 290 286 281 290 289 283 292 230 189 277 280 256 338 307 228 232 230 242 236 226 230 228 251 295 257 221 233 224 187 223 255 228 249 257 271 230 225 229 214 220 215 218 212 215 216 230 239 215 207 218 216 194 208 242 141 232 239 243 198 194 202 214 219 218 212 218 212 200 197 201 186
340 340 343 342 339 335 334 334 336 337 337 331 317 307 300 296 286 282 284 291 299 315 254 249 289 156 235 104 359 297 250 232 285 220 217 220 222 229 211 259 256 263 237 241 205 174 184 212 142 246 249 257 214 205 202 209 205 208 208 230 217 218 209 229 213 209 205 208 215 205 228 225 311 199 219 245 196 202 208 219 220 215 211 215 210 204 197 198
342 341 341 343 340 337 336 336 337 335 335 330 318 306 302 294 290 284 272 191 264 289 260 272 327 344 253 244 268 266 295 257 206 246 228 207 210 199 177 207 242 260 239 218 206 192 173 188 192 220 199 222 222 200 204 201 194 195 199 216 227 233 219 220 214 186 211 200 219 209 219 222 234 272 267 223 234 201 204 210 220 223 215 212 212 211 210 200
342 342 342 341 339 337 336 336 335 333 332 330 315 295 274 276 280 263 278 14 253 220 216 189 178 177 239 107 300 13 325 337 304 247 232 202 201 175 177 99 102 299 226 212 203 185 169 181 188 214 211 198 215 207 210 207 196 201 199 214 219 223 220 227 216 204 202 206 210 216 225 214 216 226 251 267 250 253 211 200 210 221 220 217 213 210 214 212
344 345 342 340 337 336 336 333 332 328 330 327 325 324 295 299 256 251 31 301 246 255 283 312 204 258 291 272 213 205 237 30 327 244 254 233 180 200 173 143 178 229 260 217 176 195 154 184 196 205 213 206 211 216 215 218 220 207 213 211 218 226 240 236 230 224 189 213 213 214 222 221 215 212 227 244 246 255 223 209 210 209 213 217 216 213 213 214
344 343 340 338 336 335 334 331 328 326 328 323 322 328 345 358 349 333 320 266 237 241 254 265 239 234 252 296 293 1 19 20 300 299 291 342 287 182 189 145 187 227 218 243 219 174 190 191 206 207 221 219 214 223 230 228 235 232 223 224 222 216 227 222 229 199 179 196 218 215 222 223 225 215 210 215 234 239 233 211 215 216 218 221 222 217 212 215
340 338 341 338 337 335 332 329 326 323 325 318 311 318 318 4 169 235 267 290 276 250 240 246 258 264 252 255 267 122 105 256 281 275 200 163 251 216 166 178 184 215 200 230 262 193 201 200 199 206 212 225 223 216 230 232 226 233 231 222 230 224 227 227 223 226 189 198 224 197 218 227 226 228 226 224 212 226 228 223 218 215 218 222 222 221 219 212
339 342 341 340 337 335 332 329 323 319 312 324 333 325 331 1 166 177 204 266 275 247 245 241 240 239 245 251 245 206 226 224 258 229 201 122 214 229 198 180 199 204 201 201 232 202 201 215 206 199 203 215 232 223 217 229 240 234 224 235 230 207 204 205 221 222 170 176 183 225 237 233 228 224 228 232 234 216 223 228 223 214 218 221 223 219 220 222
341 340 341 339 337 335 331 327 317 303 357 329 308 344 351 334 279 280 271 271 290 272 229 223 225 229 242 233 181 215 220 249 228 234 127 143 205 281 250 206 195 203 219 199 219 238 248 195 208 208 206 209 218 228 224 215 228 233 233 233 235 224 220 241 174 210 203 203 181 73 288 255 229 240 227 219 230 240 216 224 234 231 221 213 213 221 216 217
338 338 339 340 337 331 331 320 305 0 333 314 354 23 344 342 330 295 303 275 241 262 194 249 194 231 243 192 162 193 212 255 246 255 160 163 181 116 247 251 230 217 219 211 213 229 252 268 312 214 218 213 213 217 225 224 227 228 233 237 243 234 230 211 253 272 216 234 185 161 248 247 211 227 233 238 225 225 223 225 223 225 231 229 213 210 212 215
336 336 341 336 333 331 328 304 23 347 322 321 24 1 339 15 307 327 300 281 287 307 40 189 71 270 2 212 155 211 284 254 211 213 157 179 140 168 339 234 195 231 215 214 216 222 236 234 237 249 221 216 215 218 215 221 236 226 216 217 241 260 261 246 235 212 232 217 194 176 222 258 171 217 219 222 241 251 235 222 224 218 220 221 225 211 205 206
334 333 334 332 329 333 328 318 338 308 308 340 19 359 340 303 347 283 291 233 272 13 86 5 302 351 336 330 209 144 202 315 174 177 162 158 140 124 154 276 239 286 266 223 194 228 193 205 221 244 263 233 212 219 211 212 225 239 219 203 209 232 250 252 239 236 259 209 272 228 205 252 254 221 209 211 221 230 239 239 227 223 220 219 218 214 207 205
332 330 328 326 327 328 303 299 297 293 288 322 357 350 338 298 297 273 256 333 264 320 16 307 24 128 236 355 119 205 128 78 185 212 173 147 98 83 164 225 227 259 256 160 231 126 194 205 213 222 237 230 239 217 204 209 221 226 222 258 224 209 226 238 246 261 256 301 229 237 190 249 245 222 226 210 219 224 227 228 230 227 224 224 219 214 214 210
332 331 327 325 325 320 297 267 277 284 303 304 339 324 282 314 300 344 321 269 22 336 139 86 309 243 240 53 179 244 280 308 307 290 294 156 177 136 200 228 238 253 252 253 258 251 183 243 226 218 214 236 239 251 215 202 225 215 329 18 321 267 224 226 245 245 264 241 238 219 192 241 259 203 213 219 239 232 219 221 227 225 222 221 219 217 217 216
331 327 326 324 324 312 318 320 287 284 284 311 8 292 289 283 269 256 250 269 23 353 280 271 350 341 76 241 235 252 252 262 264 29 40 142 263 261 264 60 200 230 273 231 242 270 297 335 46 51 223 248 255 256 243 216 223 194 150 160 259 43 39 13 262 251 234 241 233 219 220 223 265 218 214 211 213 226 233 232 218 221 221 217 212 212 215 218
328 327 323 324 316 315 304 286 330 22 357 348 298 297 314 21 260 293 260 245 43 241 265 67 336 339 311 299 283 224 253 266 258 138 32 281 253 236 271 185 63 340 264 288 273 259 251 278 264 206 173 312 360 318 283 283 222 201 125 185 216 208 60 28 300 58 215 235 222 213 215 222 244 243 207 223 217 208 213 224 228 226 216 213 208 206 210 214
329 326 323 321 295 280 282 275 321 351 4 323 304 278 204 227 189 229 258 118 352 339 24 4 350 30 347 332 310 286 302 293 265 235 213 187 219 183 202 216 146 207 253 227 263 209 243 232 232 240 153 171 137 360 280 286 318 227 165 197 192 201 153 222 193 226 219 234 204 212 209 236 238 248 152 219 209 226 221 214 217 222 225 215 202 202 206 209
329 327 318 306 291 291 271 271 286 321 304 295 310 357 243 273 273 191 275 23 275 25 9 351 339 349 304 277 255 328 59 273 325 268 235 250 241 224 208 215 196 205 272 186 238 251 260 223 208 224 218 157 157 173 201 258 207 231 206 176 184 198 201 224 211 237 254 232 222 221 193 240 262 266 224 248 239 236 205 238 237 212 214 211 203 198 188 186
330 323 311 311 303 268 286 294 315 297 247 246 229 218 283 265 257 118 223 299 297 288 295 340 325 310 175 283 282 130 307 193 332 315 69 260 235 252 231 220 228 250 232 299 284 198 258 252 223 173 232 147 183 191 205 236 198 213 218 195 196 190 196 211 205 212 221 234 215 194 190 209 194 220 141 216 229 242 263 262 288 301 172 189 191 176 168 168
326 313 307 302 277 275 313 303 253 218 198 182 190 223 224 245 267 309 312 354 330 330 327 339 297 315 294 239 160 141 204 332 88 317 308 272 255 240 235 218 204 210 226 257 209 284 237 268 245 186 188 168 185 196 195 204 291 247 233 226 206 211 177 231 190 210 226 240 246 182 216 114 239 281 232 201 191 207 224 234 217 237 254 187 165 173 171 173
323 328 305 276 18 9 356 32 183 187 185 193 241 229 242 250 308 11 16 11 353 328 328 315 289 246 276 308 106 87 49 310 8 133 262 226 243 275 258 256 207 191 200 208 241 238 213 243 155 226 217 188 184 184 186 166 229 160 227 225 217 208 218 237 261 193 228 222 231 179 232 241 277 272 252 274 247 212 214 218 205 202 200 183 191 188 185 183
327 320 321 342 350 352 359 100 151 180 199 260 233 261 246 265 227 265 329 338 334 329 333 347 329 21 344 339 346 61 93 195 291 347 307 346 277 207 245 264 271 213 209 197 255 242 291 291 279 151 223 221 197 190 187 190 172 122 220 216 242 251 41 231 228 197 228 230 227 193 222 234 215 264 180 232 244 250 257 204 210 207 191 195 196 190 186 190
324 311 289 279 355 340 86 158 149 95 82 220 240 267 91 286 15 340 340 344 321 328 326 324 288 355 316 7 325 2 77 349 47 28 302 126 292 102 179 269 227 231 217 211 246 221 196 268 261 231 233 247 308 232 217 206 189 205 185 185 204 209 234 172 262 227 212 225 239 228 229 240 222 235 142 193 218 225 233 230 212 214 198 195 195 198 196 202
313 313 303 86 346 34 51 101 91 135 182 238 260 286 57 289 323 325 337 338 307 298 300 265 321 47 36 327 322 319 334 319 11 319 350 175 276 334 345 24 331 333 306 233 235 255 76 241 282 191 194 173 152 82 231 208 250 11 343 224 90 16 247 201 204 258 223 241 221 240 211 245 224 240 227 222 225 216 223 221 220 214 201 195 195 198 198 210
349 337 68 22 15 12 89 104 97 114 244 253 262 268 118 258 270 305 334 36 337 349 294 322 91 289 318 235 3 300 340 331 336 323 212 20 299 312 305 136 324 268 37 359 225 294 265 166 262 270 4 75 237 163 208 236 212 210 271 227 185 195 262 350 246 214 211 224 231 244 240 221 233 220 243 231 237 227 205 218 215 212 199 196 198 195 199 212
329 274 45 19 58 79 123 119 179 192 235 257 262 259 315 286 321 294 290 274 276 200 246 293 314 290 329 330 299 271 297 307 295 252 206 253 164 318 19 298 194 303 160 164 214 190 250 198 244 255 227 219 252 177 213 219 225 233 211 207 202 194 211 216 234 282 243 221 224 224 247 253 236 179 224 231 239 234 212 210 203 207 202 197 192 187 197 215
327 298 86 38 74 267 180 195 241 233 279 268 276 125 270 319 304 283 291 316 273 282 185 255 260 265 270 259 262 298 300 280 245 258 239 223 187 203 219 192 100 29 3 313 313 164 169 295 264 251 236 248 229 233 153 152 114 204 280 247 220 225 216 219 230 205 212 238 261 249 276 238 206 325 323 270 222 242 219 211 216 202 198 190 178 186 202 203
359 276 305 310 22 90 231 253 242 229 228 257 27 228 261 272 252 334 328 314 294 218 261 217 260 306 267 252 305 288 293 266 274 257 256 232 250 248 261 278 293 320 320 302 276 318 117 246 261 268 274 265 275 277 106 134 105 256 172 220 282 235 222 228 231 227 235 207 215 235 241 251 229 271 308 352 101 72 20 212 198 166 170 179 180 185 193 202
308 299 308 150 140 112 252 280 296 281 266 71 357 285 302 266 275 303 270 280 271 330 290 309 294 218 287 329 314 293 1 326 225 232 256 245 248 227 235 273 109 120 120 300 348 3 349 245 24 323 310 276 259 237 251 32 43 248 240 217 222 246 271 274 288 283 259 217 246 227 242 221 238 282 301 315 353 26 19 11 38 145 172 169 164 179 188 200
284 244 231 278 141 149 247 9 334 315 329 326 325 310 311 298 217 233 256 279 280 259 299 264 257 318 293 326 269 230 229 210 284 294 273 273 269 288 282 262 190 216 194 239 255 68 199 281 67 297 286 282 255 218 221 242 261 263 231 230 218 210 231 254 241 233 253 179 219 231 259 272 293 238 238 241 268 300 17 42 342 43 129 136 136 165 188 196
9 331 62 197 154 180 253 234 251 303 303 315 316 293 281 274 283 275 218 261 249 271 255 272 281 279 277 281 275 221 246 238 212 282 301 299 321 302 10 313 276 274 263 143 119 115 243 224 156 222 238 253 268 290 298 301 304 298 298 285 253 225 218 222 238 242 241 243 247 234 240 265 265 264 272 280 245 238 238 213 242 289 291 278 178 163 180 190
291 288 346 324 312 186 261 106 24 13 340 352 311 3 320 319 323 309 146 312 214 282 285 220 269 296 257 257 256 276 224 253 239 251 259 272 273 273 295 293 286 268 265 216 155 96 211 261 224 222 233 243 258 261 267 289 290 290 292 289 290 274 243 223 217 239 238 256 248 233 230 230 247 258 264 273 260 243 224 213 208 212 235 237 242 222 207 196
287 63 15 56 309 328 335 145 15 333 317 328 285 292 288 304 307 302 293 218 274 52 342 274 220 242 259 264 293 287 315 239 214 251 260 245 275 280 281 248 247 251 241 227 155 171 200 252 259 217 248 243 242 250 257 267 274 277 276 278 285 282 275 257 248 245 235 238 259 264 257 254 252 257 270 266 278 286 274 246 248 227 213 217 222 223 205 192
328 323 43 25 275 338 322 303 310 300 306 298 289 282 275 272 286 291 323 325 302 264 199 262 250 272 279 284 287 282 292 297 266 224 250 284 256 295 288 295 252 240 224 221 172 195 124 240 255 228 258 259 253 252 253 254 255 256 260 266 263 259 261 260 263 265 260 260 255 255 255 252 252 268 269 273 277 289 304 314 303 278 256 226 223 209 195 193
23 341 340 351 275 292 286 292 286 295 286 289 289 281 294 284 295 5 353 351 319 302 320 267 286 292 291 298 300 284 290 281 281 284 282 293 291 261 275 259 284 322 325 226 200 294 171 255 232 205 228 255 248 247 249 246 250 256 257 259 260 263 263 255 257 261 264 261 266 268 266 262 245 245 254 256 261 272 277 275 277 281 288 272 236 217 204 197
301 230 346 299 306 293 295 291 289 301 301 277 255 305 309 5 5 353 316 300 274 281 305 323 338 333 322 315 303 288 281 285 294 290 303 304 291 299 282 280 3 322 315 316 270 252 180 262 299 305 275 269 262 253 249 245 242 247 256 254 256 259 264 255 245 232 239 250 254 252 252 260 266 249 250 254 249 245 249 255 261 266 272 279 283 232 217 211
312 353 171 219 282 306 307 280 277 280 256 302 11 8 8 324 335 352 323 277 263 305 354 338 331 328 306 304 293 294 308 309 304 304 301 292 285 286 272 266 263 257 261 241 193 221 189 262 270 196 245 261 265 253 261 262 271 261 249 246 243 241 240 249 249 242 239 236 246 245 246 250 257 257 253 252 250 247 243 241 249 252 254 254 249 246 224 217